Find OneWeb SL0581

NORAD ID: 56069 Int'l Des: 2023-043 Owner: ONEWEBN Country: UK Constellation: oneweb operational
LEOCIRCULARPOLARONEWEB_TYPE

实时位置

正在加载3D地球...

关于 OneWeb SL0581

正在加载描述...

即将过境

Passes for default location (London). Set your location on the main map for personalized predictions.

高度历史

Loading altitude history...

两行轨道根数

1 56069U 23043Z 26106.13674134 .00000037 00000-0 64232-4 0 9993
2 56069 87.9067 241.1101 0002142 116.6661 243.4689 13.16593310150791
Epoch: Apr 16, 2026 • Age: 11 hours

当前状态

高度 1200.3 km
速度 7.26 km/s
星下点 18.17°N, 177.79°W
发射日期 Mar 26, 2023
运行时间 3 years
类型 internet

技术详情

分类 Payload
质量 148.00 kg
干质量 140.00 kg
总质量 148.00 kg
长度 1.30 m
直径 1.00 m
跨度 5.00 m
形状 Trapezoid+2 pan
制造商 ONEWUS
平台类型 ARROW
阶段状态 In Orbit
所有者/国家 ONEWEBN/UK

Most Searched